Location: Fontevrault
(47.1823°N, 0.0493°E)
Time: 04:03:41
(UTC+00:00)

Uosat 12 SS-18 rocket - Pass Details

Date: 31 October 2021
Orbit: 579 x 1405 km, 64.6° (Epoch: 01 December)

Event Time Altitude Azimuth Distance (km) Brightness Sun altitude
Rises 20:35:14 0° 320° (NW) 3,779 8.8 -39.1°
Reaches altitude 10° 20:37:56 10° 329° (NNW) 2,947 8.0 -39.5°
Enters shadow 20:41:40 28° 355° (N) 2,034 6.8 -40.1°
